Location: Unspecified
(0.0000°N, 0.0000°E)
Time: 23:00:21
(UTC+00:00)

Vanguard 1 - Pass Details

Date: 01 October 2020
Orbit: 649 x 3833 km, 34.3° (Epoch: 28 October)

Event Time Altitude Azimuth Distance (km) Brightness Sun altitude
Rises 11:23:44 0° 227° (SW) 7,163 14.4 82.7°
Reaches altitude 10° 11:30:41 10° 212° (SSW) 6,556 14.4 84.2°
Maximum altitude 11:46:18 22° 168° (SSE) 5,958 14.4 86.4°
Drops below altitude 10° 12:01:46 10° 124° (SE) 6,552 14.4 85.4°
Sets 12:08:34 0° 109° (ESE) 7,166 14.4 84.1°
